Hourly Data Report for August 31, 2015

All times are specified in Local Standard Time (LST). Add 1 hour to adjust for Daylight Saving Time where and when it is observed.

TORONTO INTL A
ONTARIO

43°40'36.000" N
79°37'50.000" W
173.40 m
6158731
71624
YYZ

Download Data

Hourly Data (August 2015)
Hourly Data Report for August 31, 2015
Temp Definition
°C
Dew Point Temp Definition
°C
Rel Hum Definition
%
Wind Dir Definition
10's deg

Wind Spd Definition
km/h
Visibility Definition
km
Stn Press Definition
kPa
Hmdx Definition


Wind Chill Definition


Weather Definition


TIME
00:00 Legend Double Dagger 20.5 18.1 86 25 12 24.1 99.55 27   LegendNANA
01:00 Legend Double Dagger 20.0 17.8 87 26 5 24.1 99.53 26   Clear
02:00 Legend Double Dagger 19.3 17.3 88 25 9 24.1 99.52     LegendNANA
03:00 Legend Double Dagger 18.8 17.2 90 26 8 24.1 99.51     LegendNANA
04:00 Legend Double Dagger 17.5 16.2 92 27 8 24.1 99.52     Mainly Clear
05:00 Legend Double Dagger 18.0 16.7 92 27 8 19.3 99.51     LegendNANA
06:00 Legend Double Dagger 19.0 17.7 92 27 10 9.7 99.57     Fog
07:00 Legend Double Dagger 19.8 18.3 91 27 11 9.7 99.61     Fog
08:00 Legend Double Dagger 21.3 18.7 85 25 16 12.9 99.63 28   LegendNANA
09:00 Legend Double Dagger 23.5 18.7 74 27 20 16.1 99.65 30   LegendNANA
10:00 Legend Double Dagger 24.7 18.5 68 30 17 19.3 99.69 31   Mainly Clear
11:00 Legend Double Dagger 26.1 18.6 63 26 18 24.1 99.66 33   LegendNANA
12:00 Legend Double Dagger 27.1 18.3 58 27 20 24.1 99.62 33   LegendNANA
13:00 Legend Double Dagger 27.7 18.0 55 27 16 24.1 99.62 34   Mainly Clear
14:00 Legend Double Dagger 28.1 18.1 54 28 13 24.1 99.56 34   LegendNANA
15:00 Legend Double Dagger 29.1 19.0 54 27 14 24.1 99.52 36   LegendNANA
16:00 Legend Double Dagger 29.2 17.9 50 27 13 24.1 99.51 35   Mainly Clear
17:00 Legend Double Dagger 28.4 18.1 53 26 11 24.1 99.50 34   LegendNANA
18:00 Legend Double Dagger 27.8 17.5 53 29 16 24.1 99.51 33   LegendNANA
19:00 Legend Double Dagger 25.6 18.4 64 28 14 24.1 99.54 32   Clear
20:00 Legend Double Dagger 24.6 19.5 73 36 14 24.1 99.59 32   LegendNANA
21:00 Legend Double Dagger 22.8 18.4 76 34 17 24.1 99.62 29   LegendNANA
22:00 Legend Double Dagger 21.7 18.2 80 34 17 24.1 99.65 28   Clear
23:00 Legend Double Dagger 20.5 17.8 84 35 14 24.1 99.65 26   LegendNANA

Notes on Data Quality.

Legend

  • E = Estimated
  • M = Missing
  • NA = Not Available
  • ‡ = Partner data that is not subject to review by the National Climate Archives
Date modified: